Weather History for Nashua, NH

Change the Weather History Date:

Tuesday, January 22, 2013

  Actual Average Record
Temperature  
Mean Temperature 17 °F -  
Max Temperature 23 °F 34 °F 57 °F (1959)
Min Temperature 10 °F 10 °F -28 °F (1961)
Degree Days  
Heating Degree Days 48    
Moisture  
Dew Point 7 °F    
Average Humidity 65    
Maximum Humidity 93    
Minimum Humidity 33    
Precipitation  
Precipitation 0.00 in - - ()
Sea Level Pressure  
Sea Level Pressure 30.51 in    
Wind  
Wind Speed 5 mph (WNW)    
Max Wind Speed 18 mph    
Max Gust Speed 28 mph    
Visibility 10 miles    
Events      
Averages and records for this station are not official NWS values.
T = Trace of Precipitation, MM = Missing Value Source: NWS Daily Summary

Daily Weather History Graph

Daily Weather History Graph

Search for Another Location

Airport:

Trip Planner

Search our weather history database for the weather conditions in past years. The results will help you decide how hot, cold, wet, or windy it might be!

Date:

Astronomy

Jan. 22, 2013 Rise Set
Actual Time 7:09 AM EST 4:46 PM EST
Civil Twilight 6:38 AM EST 5:17 PM EST
Nautical Twilight 6:04 AM EST 5:51 PM EST
Astronomical Twilight 5:30 AM EST 6:25 PM EST
Moon 1:06 PM EST (1/22) 3:29 AM EST (1/22)
Length of Visible Light 10h 38m
Length of Day
9h 37m
Waxing Gibbous, 82% of the Moon is Illuminated
Jan 22
Waxing Gibbous
Jan 26
Full
Feb 3
Last Quarter
Feb 10
New
Feb 17
First Quarter

Hourly Weather History & Observations

Time (EST) Temp. Windchill Dew Point Humidity Pressure Visibility Wind Dir Wind Speed Gust Speed Precip Events Conditions
12:25 AM 19.4 °F 14.3 °F 17.6 °F 93% 29.80 in 10.0 mi NW 3.5 mph - N/A   Overcast
12:51 AM 21.0 °F 16.2 °F 18.1 °F 89% 30.55 in 10.0 mi NW 3.5 mph - 0.00 in   Overcast
1:14 AM 19.4 °F - 17.6 °F 93% 29.77 in 9.0 mi Calm Calm - 0.00 in   Mostly Cloudy
1:27 AM 19.4 °F - 17.6 °F 93% 29.77 in 10.0 mi Calm Calm - 0.00 in   Partly Cloudy
1:51 AM 19.0 °F - 16.2 °F 89% 30.55 in 10.0 mi Calm Calm - 0.00 in   Partly Cloudy
2:11 AM 17.6 °F - 15.8 °F 93% 29.78 in 10.0 mi Calm Calm - N/A   Mostly Cloudy
2:51 AM 18.1 °F - 15.1 °F 88% 30.54 in 10.0 mi Calm Calm - N/A   Mostly Cloudy
3:08 AM 17.6 °F 12.3 °F 14.0 °F 86% 29.77 in 10.0 mi WNW 3.5 mph - N/A   Scattered Clouds
3:51 AM 14.0 °F 8.2 °F 11.1 °F 88% 30.53 in 10.0 mi WNW 3.5 mph - N/A   Mostly Cloudy
5:51 AM 16.2 °F - 14.0 °F 91% 30.55 in 10.0 mi Calm Calm - 0.00 in   Partly Cloudy
6:51 AM 18.1 °F 10.0 °F 13.1 °F 81% 30.57 in 10.0 mi WNW 5.8 mph - N/A   Clear
7:51 AM 18.1 °F 7.1 °F 10.0 °F 71% 30.59 in 10.0 mi WNW 9.2 mph - N/A   Clear
8:51 AM 20.1 °F 5.9 °F 8.1 °F 60% 30.61 in 10.0 mi NW 16.1 mph 23.0 mph N/A   Partly Cloudy
9:51 AM 21.0 °F 7.6 °F 8.1 °F 57% 30.63 in 10.0 mi WNW 15.0 mph - N/A   Clear
10:51 AM 23.0 °F 8.7 °F 6.1 °F 48% 30.63 in 10.0 mi NW 18.4 mph 26.5 mph N/A   Partly Cloudy
11:51 AM 21.0 °F 9.3 °F 3.0 °F 46% 30.63 in 10.0 mi WNW 11.5 mph - N/A   Partly Cloudy
12:51 PM 22.1 °F 9.5 °F 0.1 °F 38% 30.62 in 10.0 mi NW 13.8 mph 20.7 mph N/A   Mostly Cloudy
1:51 PM 22.1 °F 8.5 °F -1.8 °F 35% 30.63 in 10.0 mi NW 16.1 mph 27.6 mph N/A   Mostly Cloudy
2:51 PM 21.0 °F 8.6 °F -4.0 °F 33% 30.66 in 10.0 mi NW 12.7 mph 21.9 mph N/A   Scattered Clouds
3:51 PM 20.1 °F 8.8 °F -2.9 °F 36% 30.69 in 10.0 mi NW 10.4 mph - N/A   Scattered Clouds
4:51 PM 18.1 °F 8.9 °F -6.0 °F 34% 30.72 in 10.0 mi WNW 6.9 mph - N/A   Partly Cloudy
5:51 PM 16.2 °F 7.6 °F -2.9 °F 43% 30.76 in 10.0 mi Variable 5.8 mph - N/A   Clear
6:51 PM 15.1 °F 6.4 °F -2.9 °F 45% 30.79 in 10.0 mi WNW 5.8 mph - N/A   Clear
7:51 PM 14.0 °F 3.9 °F 1.0 °F 56% 30.81 in 10.0 mi Variable 6.9 mph - N/A   Clear
8:51 PM 14.0 °F 3.9 °F -0.9 °F 52% 30.82 in 10.0 mi WNW 6.9 mph - N/A   Scattered Clouds
9:51 PM 12.0 °F 5.9 °F -0.9 °F 56% 30.83 in 10.0 mi WNW 3.5 mph - N/A   Clear
10:51 PM 11.1 °F 3.1 °F 1.0 °F 64% 30.85 in 10.0 mi West 4.6 mph - N/A   Clear
11:51 PM 10.0 °F 3.6 °F -1.8 °F 59% 30.85 in 10.0 mi Variable 3.5 mph - N/A   Clear